星链-4074 (STARLINK-4074 )

导读

STARLINK-4074是美国太空探索技术公司(SpaceX)星链卫星互联网项目的组网卫星,于北京时间2022年5月18日发射入轨,属于星链星座部署批次卫星,承担低轨卫星互联网组网任务,服务全球卫星互联网通信覆盖,为偏远区域、移动载体等提供宽带接入服务。

基本信息
目录编号:
52678
目录名称:
STARLINK-4074
国际标识:
2022-053Y
轨道中心:
EARTH
卫星名称:
星链-4074
卫星全名:
星链-4074 (STARLINK-4074 )
卫星状态:
在轨 (已飞行1577 天)
发射日期:
2022-05-18 UTC
国别 :
美国 (US)
星等 :
--
该卫星已列入 空间交会检测服务 Space Conjunction Data Service (SCDS) ,当前飞行风险评估等级: 无高风险
轨道信息
数据来源 国际轨道数据
星历时间: 2026-09-11T20:38:29+0800
7小时前
查看轨道信息
半长轴: 6848.85km
偏心率: 0.0000943
轨道倾角: 53.163°
近地点辐角 81.673°
升交点赤经 24.599°
平近点角 278.438°
近地点: 470.067km
远地点: 471.359km
周期: 94.013分钟
每日圈数: 15.317091
详细信息
固有亮度:
5
最大亮度:
2.5
卫星平台:
Starlink v1.5
覆盖范围:
全球
运营商:
太空探索技术公司
运营商所在国:
美国
制造商(研发单位):
太空探索技术公司
制造商所在国:
美国
使用方式:
暂无
卫星简介
星链(Starlink)计划是由太空探索技术公司(SpaceX)提出的一个巨型低轨卫星互联网星座项目,计划在2019年至2024年间在太空搭建由约1.2万颗卫星组成的“星链”网络,其中1584颗将部署在地球上空550千米处的近地轨道,并从2020年开始工作。该卫星仍在工作。
2D轨道图
3D轨道图
轨道高度分析图
轨道倾角分析图
轨道综合分析图
查看轨道综合分析图
交会数据列表
事件ID 空间交会对象 最接近时刻(TCA) 交会距离 交会风险概率(CRP) 交会风险指数(CRI) 操作
CDM_260905-184305-267806-488023
OBJECT E (64880)
2026-09-05T
18:43:13+0000
2.808 km
极远距离
1.451841E-6 低风险 0.38
CDM_260911-231105-267806-875221
2026-09-11T
23:11:53+0000
2.863 km
极远距离
1.229633E-6 低风险 0.37
CDM_260914-060205-267806-944021
2026-09-14T
06:02:22+0000
2.992 km
极远距离
1.20982E-6 低风险 0.37
CDM_260911-213605-267806-903322
2026-09-11T
21:36:31+0000
2.984 km
极远距离
1.130384E-6 低风险 0.36
与全量物体交会距离演化趋势
与全量物体交会风险概率演化趋势